NUSAT-3 (MILANESAT) (42760 NORAD) Tracking and Keplerian Element Data

This shows tracking and keplerian element data for the satellite.

Feedback or suggestion? Click here.




ElementValue
Catalog42760
NameNUSAT-3 (MILANESAT)
Epoch Orbit7840
Epoch Day320.07401069
Epoch Year2018
RAAN330.0613
Inclination43.0192
Eccentricity0.0009975
Argument of Perigee340.4768
Mean Anonmoly118.5297
Mean Motion15.09295905
Decay Rate3.75E-06
L11 42760U 17034C 18320.07401069 .00000375 00000-0 36684-4 0 9991
L22 42760 43.0192 330.0613 0009975 340.4768 118.5297 15.09295905 78405

Live tracking and technical data element details for NUSAT-3 (MILANESAT) (NORAD 42760). NUSAT-3 (MILANESAT) can be tracked NOW for your location showing map with azimuth and elevation plus other details from your city location.

Track the satellite on the map from your city or location and see movement details for azimuth, elevation, latitude, longitude, range, height, and movement on the map or in text.







IsCatalogInMostPopularTable: catalog: 42760, numindb: 124
Update: records affected: 1



GetName: 42760 NUSAT-3 (MILANESAT)

Hit Count: updated at: Fri, 16 Nov 2018 11:33:47 GMT